{"data":{"norad_id":37167,"intl_designator":"2010-047C","name":"ZHEDA PIXING 1C","alt_names":[],"object_type":"PAYLOAD","status":"ACTIVE","operator":null,"country":"PRC","launch_date":"2010-09-22","launch_site_code":"JSC","launch_vehicle":null,"mission":null,"orbit_class":"UNKNOWN","rcs_meters":0.15,"size_class":null,"mass_kg":null,"dimensions":null,"purposes":[],"wikipedia_slug":null,"has_3d_model":false,"image_url":null,"decayed_at":null,"tle_current":{"epoch":"2026-05-25T04:55:12.000864Z","epoch_age_seconds":54655,"freshness":"FRESH","line1":"1 37167U 10047C   26145.20500001  .00001181  00000+0  12549-3 0  9996","line2":"2 37167  97.9766 126.5726 0019440   7.6508 352.5002 14.90856552847004","mean_motion":14.90856552,"eccentricity":0.001944,"inclination_deg":97.9766,"raan_deg":126.5726,"arg_perigee_deg":7.6508,"mean_anomaly_deg":352.5002,"bstar":0.00012549,"rev_number":84700,"period_min":96.588769594783,"perigee_km":581.70711183509,"apogee_km":608.8196925989,"semimajor_km":6973.400402217,"source":"CELESTRAK","updated_at":"2026-05-25T13:37:55.224111Z"}}}